This is the latest recevied weather packets stored in our database for station/object KF6YUA. If no packets are shown the sender has not sent any weather packets the latest 10 day(s).
| Time | Temp. | Humidity | Pressure | Rain* | Wind** | Luminosity | Snow |
|---|---|---|---|---|---|---|---|
| 1776983594 | 21.11° C | 45% | 1019 hPa | 0 mm | - | 454 W/m² | - |
| 1776983289 | 20.56° C | 44% | 1019 hPa | 0 mm | - | 470 W/m² | - |
| 1776982987 | 20.56° C | 50% | 1019.1 hPa | 0 mm | - | 442 W/m² | - |
| 1776982684 | 20° C | 51% | 1019.1 hPa | 0 mm | - | 580 W/m² | - |
| 1776982381 | 20.56° C | 51% | 1019.2 hPa | 0 mm | - | 557 W/m² | - |
| 1776982080 | 20.56° C | 46% | 1019.2 hPa | 0 mm | - | 577 W/m² | - |
| 1776981775 | 20.56° C | 50% | 1019.3 hPa | 0 mm | - | 581 W/m² | - |
| 1776981470 | 21.11° C | 49% | 1019.3 hPa | 0 mm | - | 636 W/m² | - |
| 1776981167 | 21.11° C | 46% | 1019.4 hPa | 0 mm | - | 624 W/m² | - |
| 1776980862 | 21.11° C | 44% | 1019.5 hPa | 0 mm | - | 524 W/m² | - |
| 1776980561 | 20.56° C | 47% | 1019.6 hPa | 0 mm | - | 679 W/m² | - |
| 1776980256 | 21.11° C | 48% | 1019.5 hPa | 0 mm | - | 719 W/m² | - |
| 1776979953 | 21.11° C | 47% | 1019.7 hPa | 0 mm | - | 668 W/m² | - |
| 1776979653 | 21.11° C | 49% | 1019.8 hPa | 0 mm | - | 744 W/m² | - |
| 1776979350 | 21.11° C | 49% | 1019.7 hPa | 0 mm | - | 705 W/m² | - |
| 1776979046 | 20.56° C | 46% | 1019.7 hPa | 0 mm | - | 749 W/m² | - |
| 1776978743 | 21.11° C | 51% | 1019.6 hPa | 0 mm | - | 614 W/m² | - |
| 1776978441 | 20.56° C | 50% | 1019.8 hPa | 0 mm | - | 746 W/m² | - |
| 1776978138 | 20.56° C | 49% | 1019.8 hPa | 0 mm | - | 568 W/m² | - |
| 1776977836 | 20.56° C | 51% | 1019.7 hPa | 0 mm | - | 625 W/m² | - |
| 1776977532 | 20.56° C | 53% | 1019.9 hPa | 0 mm | - | 761 W/m² | - |
| 1776977227 | 20.56° C | 52% | 1019.7 hPa | 0 mm | - | 596 W/m² | - |
| 1776976924 | 20.56° C | 54% | 1020 hPa | 0 mm | - | 725 W/m² | - |
* Rain latest hour (hover to see other rain measurements)
** Current wind speed in m/s (hover to see current wind gust speed)